CDT,Max TemperatureF,Mean TemperatureF,Min TemperatureF,Max Dew PointF,MeanDew PointF,Min DewpointF,Max Humidity, Mean Humidity, Min Humidity, Max Sea Level PressureIn, Mean Sea Level PressureIn, Min Sea Level PressureIn, Max VisibilityMiles, Mean VisibilityMiles, Min VisibilityMiles, Max Wind SpeedMPH, Mean Wind SpeedMPH, Max Gust SpeedMPH,PrecipitationIn, CloudCover, Events, WindDirDegrees
2013-4-1,33,30,26,19,11,5,64,46,32,30.16,30.07,29.91,10,10,10,15,10,22,0.00,3,,303
2013-4-2,35,30,24,16,11,1,59,45,24,30.31,30.23,30.17,10,10,10,14,7,21,0.00,0,,287
2013-4-3,41,32,23,21,13,3,80,48,23,30.47,30.36,30.27,10,10,10,14,5,,0.00,0,,227
2013-4-4,53,42,30,30,23,16,70,51,33,30.26,30.08,29.95,10,10,10,22,11,26,0.00,1,,230
2013-4-5,42,36,30,25,21,16,75,55,36,30.25,30.17,30.04,10,10,10,14,7,17,0.00,2,,27
2013-4-6,57,44,32,46,31,14,87,60,38,30.15,29.80,29.54,10,10,5,25,14,33,0.04,7,Rain,144
2013-4-7,50,42,35,46,32,30,87,73,53,29.96,29.86,29.55,10,10,10,15,10,30,0.00,5,,297
2013-4-8,44,38,33,41,36,28,100,89,70,30.01,29.82,29.63,10,6,2,22,10,29,0.40,6,Rain,40
2013-4-9,41,37,33,39,36,32,100,98,87,30.04,29.99,29.90,10,5,0,20,10,29,1.05,8,Fog-Rain-Snow-Thunderstorm,39
2013-4-10,35,34,32,36,33,32,100,96,87,30.08,29.99,29.91,10,8,2,20,13,28,0.63,8,Rain-Snow-Thunderstorm,32
2013-4-11,35,34,33,36,34,32,100,97,87,29.95,29.72,29.57,10,5,1,30,18,47,0.12,8,Rain-Snow,66
2013-4-12,37,34,32,36,32,28,100,93,81,29.78,29.63,29.52,10,7,1,16,7,17,0.00,8,Rain-Snow,316
2013-4-13,35,32,30,30,26,21,100,75,60,30.00,29.86,29.77,10,10,0,20,11,25,0.00,8,Snow,251
2013-4-14,50,41,32,41,31,23,93,79,66,30.01,29.86,29.59,10,10,3,29,9,33,0.00,5,Snow,88
2013-4-15,57,49,39,50,40,30,100,78,41,29.96,29.78,29.57,10,8,2,26,12,32,0.33,5,Rain-Thunderstorm,214
2013-4-16,48,40,32,36,30,27,87,67,43,30.30,30.14,29.96,10,10,10,13,6,18,0.00,1,,311
2013-4-17,41,38,35,41,34,30,100,85,70,30.33,30.16,29.90,10,9,2,23,8,28,0.57,7,Rain-Thunderstorm,68
2013-4-18,51,44,37,52,43,32,100,98,75,29.89,29.56,29.33,10,7,1,34,10,39,0.39,8,Rain,68
2013-4-19,37,34,30,32,26,18,87,73,56,29.89,29.53,29.35,10,10,4,28,20,36,0.00,7,Snow,254
2013-4-20,41,34,26,23,13,1,74,46,19,30.40,30.20,29.90,10,10,10,15,8,25,0.00,1,,294
2013-4-21,46,38,30,28,23,18,80,53,34,30.50,30.38,30.27,10,10,10,22,12,28,0.00,4,,132
2013-4-22,64,52,39,32,31,28,70,48,27,30.28,30.16,30.02,10,10,10,18,11,22,0.00,4,,157
2013-4-23,51,43,35,45,33,27,87,72,47,30.01,29.96,29.88,10,10,10,14,10,23,0.00,8,Rain,290
2013-4-24,50,41,32,27,20,12,80,49,22,30.02,30.00,29.96,10,10,10,14,9,28,0.00,2,,284
2013-4-25,50,41,32,34,27,18,100,60,30,30.28,30.14,29.96,10,10,1,20,11,26,0.02,5,Rain-Snow,248
2013-4-26,66,52,37,39,31,23,70,47,30,30.28,30.22,30.15,10,10,10,26,13,37,0.00,2,,177
2013-4-27,64,54,44,45,40,36,87,58,37,30.24,30.16,30.03,10,10,5,14,9,22,0.00,3,,189
2013-4-28,69,55,41,46,36,32,87,50,25,30.02,29.90,29.81,10,10,5,12,4,,0.00,2,,104
2013-4-29,68,59,50,54,48,45,87,71,43,29.86,29.81,29.74,10,10,5,20,8,25,0.01,3,Rain,163
2013-4-30,82,70,59,59,48,34,94,54,17,29.90,29.76,29.70,10,10,7,29,15,38,0.05,1,Rain-Thunderstorm,179